Home   Weather   Löhne   Past weeks

Flag for Germany Past Weather in Löhne, North Rhine-Westphalia, Germany — Yesterday and Last 2 Weeks

54 °F

Broken clouds.

Feels Like: 49 °F
Forecast: 44 / 54 °F
Wind: 16 mph from West

Location: Bueckeburg

Current Time: Oct 28, 2016 at 10:27:05 AM

Latest Report: Oct 28, 2016 at 9:48 AM

Visibility: N/A

Pressure: 30.36 "Hg

Humidity: 88%

Dew Point: 50 °F

Location of LöhneLocation

Past Weather in Löhne — Graph


Löhne Temperature Yesterday

Maximum temperature yesterday: 55 °F (at 4:50 PM)
Minimum temperature yesterday: 48 °F (at 12:00 AM)
Average temperature yesterday: 51 °F

High & Low Weather Summary for the Past Weeks

High63 °F (Oct 16, 3:20 PM)100% (Oct 13, 9:52 AM)30.45 "Hg (Oct 13, 9:52 AM)
Low34 °F (Oct 23, 8:20 AM)59% (Oct 16, 3:20 PM)29.71 "Hg (Oct 15, 5:20 AM)
Average48 °F91%30.06 "Hg
* Reported Oct 13 8:20 AM — Oct 28 8:20 AM, Löhne, Weather by CustomWeather, © 2016

Note: Actual official high and low records may vary slightly from our data, if they occured in-between our weather recording intervals... More about our weather records


Löhne Weather History for the Previous 24 Hours

Scroll right to see more
Time TempWeatherWind HumidityBarometerVisibility
8:20 AM
Fri, Oct 28
54 °FMore clouds than sun.14 mph88%30.36 "Hg5 mi
6:20 AM54 °FDrizzle. Mostly cloudy.16 mph88%30.36 "Hg4 mi
5:20 AM54 °FPassing clouds.13 mph88%30.39 "Hg6 mi
4:20 AM54 °FPassing clouds.15 mph82%30.39 "Hg4 mi
3:20 AM52 °FPassing clouds.13 mph88%30.39 "Hg4 mi
2:20 AM52 °FPartly cloudy.13 mph88%30.42 "Hg4 mi
1:20 AM54 °FPassing clouds.13 mph88%30.42 "Hg4 mi
12:20 AM52 °FPartly cloudy.12 mph88%30.42 "Hg4 mi
11:20 PM
Thu, Oct 27
54 °FPassing clouds.14 mph82%30.42 "Hg4 mi
10:20 PM52 °FFog.10 mph88%30.42 "Hg3 mi
9:20 PM52 °FFog.8 mph88%30.42 "Hg3 mi
8:20 PM52 °FFog.12 mph88%30.45 "Hg3 mi
7:20 PM52 °FFog.7 mph88%30.42 "Hg3 mi
6:20 PM54 °FFog.8 mph88%30.45 "Hg3 mi
5:20 PM54 °FFog.8 mph88%30.45 "Hg3 mi
4:50 PM55 °FFog.7 mph88%30.45 "Hg3 mi
4:20 PM54 °FFog.8 mph88%30.45 "Hg3 mi
3:58 PM54 °FFog.9 mph88%30.45 "Hg2 mi
3:20 PM54 °FFog.10 mph88%30.45 "Hg2 mi
2:20 PM54 °FFog.10 mph88%30.45 "Hg2 mi
1:49 PM54 °FFog.12 mph88%30.45 "Hg2 mi
1:20 PM54 °FFog.12 mph88%30.45 "Hg2 mi
12:20 PM52 °FFog.9 mph94%30.45 "Hg2 mi
11:20 AM52 °FFog.9 mph94%30.45 "Hg2 mi
10:20 AM50 °FFog.10 mph94%30.42 "Hg2 mi
10:00 AM50 °FFog.9 mph94%30.42 "Hg2 mi
Weather by CustomWeather, © 2016

See weather overviewHow to use our weather pages